Time,TemperatureF,DewpointF,PressureIn,WindDirection,WindDirectionDegrees,WindSpeedMPH,WindSpeedGustMPH,Humidity,HourlyPrecipIn,Conditions,Clouds,dailyrainin,SolarRadiationWatts/m^2,SoftwareType,DateUTC
2013-05-13 00:00:00,40.0,38.0,30.16,NE,40,2.0,-999.0,94,-99.99,,,-99.99,0.000000,,2013-05-13 05:00:00,
2013-05-13 00:52:00,40.0,38.0,30.16,NE,40,2.0,-999.0,94,-99.99,,,-99.99,0.000000,,2013-05-13 05:52:00,
2013-05-13 03:00:00,37.0,36.0,30.17,SW,223,0.0,-999.0,96,-99.99,,,-99.99,0.000000,,2013-05-13 08:00:00,
2013-05-13 03:52:00,37.0,36.0,30.17,SW,223,0.0,-999.0,96,-99.99,,,-99.99,0.000000,,2013-05-13 08:52:00,
2013-05-13 04:00:00,37.0,36.0,30.17,NE,47,1.0,-999.0,97,-99.99,,,-99.99,0.000000,,2013-05-13 09:00:00,
2013-05-13 04:52:00,37.0,36.0,30.17,NE,47,1.0,-999.0,97,-99.99,,,-99.99,0.000000,,2013-05-13 09:52:00,
2013-05-13 05:00:00,36.0,35.0,30.19,NE,37,1.0,-999.0,97,-99.99,,,-99.99,0.000000,,2013-05-13 10:00:00,
2013-05-13 05:52:00,36.0,35.0,30.19,NE,37,1.0,-999.0,97,-99.99,,,-99.99,0.000000,,2013-05-13 10:52:00,
2013-05-13 06:00:00,36.0,36.0,30.22,NE,34,1.0,-999.0,98,-99.99,,,-99.99,2.920000,,2013-05-13 11:00:00,
2013-05-13 06:52:00,36.0,36.0,30.22,NE,34,1.0,-999.0,98,-99.99,,,-99.99,2.920000,,2013-05-13 11:52:00,
2013-05-13 07:00:00,44.0,42.0,30.25,NE,41,1.0,-999.0,94,-99.99,,,-99.99,68.040001,,2013-05-13 12:00:00,
2013-05-13 07:52:00,44.0,42.0,30.25,NE,41,1.0,-999.0,94,-99.99,,,-99.99,68.040001,,2013-05-13 12:52:00,
2013-05-13 09:00:00,57.0,43.0,30.28,SSW,204,1.0,-999.0,60,-99.99,,,-99.99,481.000000,,2013-05-13 14:00:00,
2013-05-13 09:52:00,57.0,43.0,30.28,SSW,204,1.0,-999.0,60,-99.99,,,-99.99,481.000000,,2013-05-13 14:52:00,
2013-05-13 10:00:00,59.0,38.0,30.29,NNE,18,3.0,-999.0,45,-99.99,,,-99.99,674.099976,,2013-05-13 15:00:00,
2013-05-13 10:53:00,59.0,38.0,30.29,NNE,18,3.0,-999.0,45,-99.99,,,-99.99,674.099976,,2013-05-13 15:53:00,
2013-05-13 11:00:00,62.0,35.0,30.28,WNW,302,3.0,-999.0,36,-99.99,,,-99.99,818.000000,,2013-05-13 16:00:00,
2013-05-13 11:53:00,62.0,35.0,30.28,WNW,302,3.0,-999.0,36,-99.99,,,-99.99,818.000000,,2013-05-13 16:53:00,
2013-05-13 12:00:00,64.0,34.0,30.27,WSW,246,5.0,-999.0,33,-99.99,,,-99.99,826.000000,,2013-05-13 17:00:00,
2013-05-13 12:54:00,64.0,34.0,30.27,WSW,246,5.0,-999.0,33,-99.99,,,-99.99,826.000000,,2013-05-13 17:54:00,
2013-05-13 13:00:00,66.0,41.0,30.26,West,272,5.0,-999.0,40,-99.99,,,-99.99,957.000000,,2013-05-13 18:00:00,
2013-05-13 13:52:00,66.0,41.0,30.26,West,272,5.0,-999.0,40,-99.99,,,-99.99,957.000000,,2013-05-13 18:52:00,
2013-05-13 14:00:00,66.0,36.0,30.23,WNW,289,5.0,-999.0,32,-99.99,,,-99.99,939.000000,,2013-05-13 19:00:00,
2013-05-13 14:53:00,66.0,36.0,30.23,WNW,289,5.0,-999.0,32,-99.99,,,-99.99,939.000000,,2013-05-13 19:53:00,
2013-05-13 15:00:00,68.0,38.0,30.21,WNW,294,5.0,-999.0,33,-99.99,,,-99.99,867.000000,,2013-05-13 20:00:00,
2013-05-13 15:53:00,68.0,38.0,30.21,WNW,294,5.0,-999.0,33,-99.99,,,-99.99,867.000000,,2013-05-13 20:53:00,
2013-05-13 16:00:00,69.0,38.0,30.18,West,281,5.0,-999.0,33,-99.99,,,-99.99,743.000000,,2013-05-13 21:00:00,
2013-05-13 16:53:00,69.0,38.0,30.18,West,281,5.0,-999.0,33,-99.99,,,-99.99,743.000000,,2013-05-13 21:53:00,
2013-05-13 17:00:00,69.0,37.0,30.18,West,273,5.0,-999.0,31,-99.99,,,-99.99,573.799988,,2013-05-13 22:00:00,
2013-05-13 17:52:00,69.0,37.0,30.18,West,273,5.0,-999.0,31,-99.99,,,-99.99,573.799988,,2013-05-13 22:52:00,
2013-05-13 18:00:00,67.0,37.0,30.17,West,265,4.0,-999.0,34,-99.99,,,-99.99,378.200012,,2013-05-13 23:00:00,
2013-05-13 18:54:00,67.0,37.0,30.17,West,265,4.0,-999.0,34,-99.99,,,-99.99,378.200012,,2013-05-13 23:54:00,
2013-05-13 19:00:00,65.0,43.0,30.17,West,264,3.0,-999.0,45,-99.99,,,-99.99,178.699997,,2013-05-14 00:00:00,
2013-05-13 19:52:00,65.0,43.0,30.17,West,264,3.0,-999.0,45,-99.99,,,-99.99,178.699997,,2013-05-14 00:52:00,
2013-05-13 20:00:00,54.0,47.0,30.18,WNW,298,1.0,-999.0,79,-99.99,,,-99.99,21.150000,,2013-05-14 01:00:00,
2013-05-13 20:53:00,54.0,47.0,30.18,WNW,298,1.0,-999.0,79,-99.99,,,-99.99,21.150000,,2013-05-14 01:53:00,
2013-05-13 21:00:00,49.0,46.0,30.19,NNE,26,1.0,-999.0,88,-99.99,,,-99.99,0.000000,,2013-05-14 02:00:00,
2013-05-13 21:52:00,49.0,46.0,30.19,NNE,26,1.0,-999.0,88,-99.99,,,-99.99,0.000000,,2013-05-14 02:52:00,
2013-05-13 22:00:00,48.0,45.0,30.22,NE,41,0.0,-999.0,91,-99.99,,,-99.99,0.000000,,2013-05-14 03:00:00,
2013-05-13 22:53:00,48.0,45.0,30.22,NE,41,0.0,-999.0,91,-99.99,,,-99.99,0.000000,,2013-05-14 03:53:00,
2013-05-13 23:00:00,47.0,45.0,30.22,NE,45,1.0,-999.0,93,-99.99,,,-99.99,0.000000,,2013-05-14 04:00:00,
2013-05-13 23:53:00,47.0,45.0,30.22,NE,45,1.0,-999.0,93,-99.99,,,-99.99,0.000000,,2013-05-14 04:53:00,